OneWeb SL0155

operational
NORAD ID: 48057 Int'l Des: 2021-025 Owner: ONEWEBN Country: UK Constellation: oneweb
LEOCIRCULARPOLARONEWEB_TYPE

OneWeb SL0155について

説明を読み込み中...

リアルタイム位置

3D地球を読み込み中...

次回通過

高度履歴

Altitude vs Time

uPlot chart will show altitude changes over time

軌道要素

1 48057U 21025R 26034.29274021 .00000005 00000-0 -22312-4 0 9996
2 48057 87.9022 346.8340 0001745 87.1172 273.0157 13.13469944236106
Epoch: Feb 3, 2026 • Age: 26 hours

現在のステータス

高度 1214.0 km
速度 7.25 km/s
衛星直下点 -7.73°S, 83.08°E
打ち上げ日 Mar 25, 2021
運用期間 4.8 years
タイプ internet

技術仕様

分類 Payload
質量 148.00 kg
乾燥質量 140.00 kg
総質量 148.00 kg
長さ 1.30 m
直径 1.00 m
スパン 5.00 m
形状 Trapezoid+2 pan
製造者 ONEWUS
バスタイプ ARROW
フェーズステータス In Orbit
所有者/国 ONEWEBN/UK

大規模コンステレーション

Loading constellations...